Huntsville, TX

6:57 PM CDT on April 25, 2017 (GMT -0500)
Huntsville Municipal

Weather History for KUTS - January, 2013

Change the Weather History Date:

Saturday, January 5, 2013

  Actual Average (KCXO) Record (KCXO)
Temperature  
Mean Temperature 44 °F -  
Max Temperature 46 °F 59 °F 75 °F (2005)
Min Temperature 42 °F 39 °F 23 °F (1999)
Degree Days  
Heating Degree Days 21    
Moisture  
Dew Point 42 °F    
Average Humidity 91    
Maximum Humidity 97    
Minimum Humidity 81    
Precipitation  
Precipitation 0.12 in - - ()
Sea Level Pressure  
Sea Level Pressure 30.32 in    
Wind  
Wind Speed 0 mph (NNE)    
Max Wind Speed 4 mph    
Max Gust Speed -    
Visibility 9 miles    
Events Rain    
Averages and records for this station are not official NWS values.
T = Trace of Precipitation, MM = Missing Value Source: NWS Daily Summary

Daily Weather History Graph

Daily Weather History Graph

Search for Another Location

Airport or City:

Trip Planner

Search our weather history database for the weather conditions in past years. The results will help you decide how hot, cold, wet, or windy it might be!

Date:

Astronomy

Jan. 05, 2013 Rise Set
Actual Time 7:20 AM CST 5:35 PM CST
Civil Twilight 6:54 AM CST 6:01 PM CST
Nautical Twilight 6:24 AM CST 6:31 PM CST
Astronomical Twilight 5:55 AM CST 7:00 PM CST
Moon 12:42 AM CST (1/5) 12:13 PM CST (1/5)
Length of Visible Light 11h 07m
Length of Day
10h 14m
Last Quarter, 44% of the Moon is Illuminated
Jan 5
Last Quarter
Jan 11
New
Jan 18
First Quarter
Jan 26
Full
Feb 3
Last Quarter

Hourly Weather History & Observations

Time (CST) Temp. Windchill Dew Point Humidity Pressure Visibility Wind Dir Wind Speed Gust Speed Precip Events Conditions
12:53 AM 44.1 °F - 39.9 °F 85% 30.38 in 10.0 mi Calm Calm - N/A   Overcast
1:53 AM 44.1 °F 42.5 °F 42.1 °F 93% 30.38 in 10.0 mi NNW 3.5 mph - 0.03 in   Overcast
2:53 AM 43.0 °F - 41.0 °F 93% 30.37 in 10.0 mi Calm Calm - N/A   Overcast
3:53 AM 43.0 °F - 41.0 °F 93% 30.37 in 9.0 mi Calm Calm - N/A   Overcast
4:53 AM 43.0 °F - 41.0 °F 93% 30.35 in 10.0 mi Calm Calm - 0.00 in   Overcast
5:53 AM 43.0 °F - 41.0 °F 93% 30.34 in 10.0 mi Calm Calm - N/A   Overcast
6:53 AM 43.0 °F - 41.0 °F 93% 30.35 in 10.0 mi Calm Calm - N/A   Overcast
7:53 AM 43.0 °F - 41.0 °F 93% 30.37 in 10.0 mi Calm Calm - N/A   Overcast
8:42 AM 42.8 °F - 41.0 °F 93% 30.38 in 10.0 mi Calm Calm - 0.00 in   Overcast
8:53 AM 43.0 °F - 39.0 °F 86% 30.38 in 10.0 mi Calm Calm - 0.00 in   Overcast
9:53 AM 43.0 °F - 39.9 °F 89% 30.39 in 7.0 mi Calm Calm - 0.01 in Rain Rain
10:21 AM 44.6 °F - 41.0 °F 87% 30.37 in 9.0 mi Calm Calm - 0.01 in Rain Light Rain
10:41 AM 44.6 °F - 39.2 °F 81% 30.36 in 10.0 mi Calm Calm - 0.01 in Rain Light Rain
10:53 AM 44.1 °F - 41.0 °F 89% 30.37 in 9.0 mi Calm Calm - 0.01 in Rain Light Rain
11:53 AM 44.1 °F - 41.0 °F 89% 30.34 in 10.0 mi Calm Calm - 0.00 in   Overcast
12:45 PM 44.6 °F - 42.8 °F 93% 30.31 in 8.0 mi Calm Calm - 0.01 in Rain Light Rain
12:53 PM 45.0 °F - 42.1 °F 90% 30.30 in 4.0 mi Calm Calm - 0.03 in Rain Heavy Rain
1:03 PM 44.6 °F - 42.8 °F 93% 30.30 in 8.0 mi Calm Calm - 0.00 in Rain Light Rain
1:08 PM 44.6 °F - 42.8 °F 93% 30.30 in 10.0 mi Calm Calm - 0.00 in Rain Light Rain
1:18 PM 44.6 °F - 42.8 °F 93% 30.30 in 5.0 mi Calm Calm - 0.01 in Rain Light Rain
1:40 PM 44.6 °F - 42.8 °F 93% 30.29 in 10.0 mi Calm Calm - 0.01 in   Overcast
1:53 PM 45.0 °F - 42.1 °F 90% 30.28 in 9.0 mi Calm Calm - 0.01 in   Overcast
2:22 PM 44.6 °F - 42.8 °F 93% 30.27 in 6.0 mi Calm Calm - 0.02 in Rain Light Rain
2:53 PM 45.0 °F - 43.0 °F 93% 30.27 in 8.0 mi Calm Calm - 0.03 in Rain Light Rain
3:34 PM 44.6 °F - 42.8 °F 93% 30.26 in 9.0 mi Calm Calm - 0.00 in Rain Light Rain
3:45 PM 44.6 °F - 42.8 °F 93% 30.26 in 10.0 mi Calm Calm - 0.00 in   Overcast
3:53 PM 46.0 °F - 43.0 °F 89% 30.27 in 10.0 mi Calm Calm - 0.00 in   Overcast
4:18 PM 46.4 °F - 42.8 °F 87% 30.27 in 10.0 mi Calm Calm - N/A   Overcast
4:32 PM 46.4 °F - 42.8 °F 87% 30.27 in 10.0 mi Calm Calm - N/A   Overcast
4:53 PM 46.0 °F 44.8 °F 43.0 °F 89% 30.26 in 10.0 mi ENE 3.5 mph - N/A   Overcast
6:07 PM 44.6 °F - 42.8 °F 93% 30.27 in 10.0 mi Calm Calm - N/A   Overcast
6:53 PM 45.0 °F - 43.0 °F 93% 30.28 in 10.0 mi Calm Calm - N/A   Overcast
7:53 PM 45.0 °F - 42.1 °F 90% 30.28 in 10.0 mi Calm Calm - N/A   Overcast
8:53 PM 44.1 °F - 42.1 °F 93% 30.27 in 10.0 mi Calm Calm - N/A   Overcast
9:41 PM 44.6 °F 43.1 °F 42.8 °F 93% 30.28 in 10.0 mi ENE 3.5 mph - N/A   Overcast
9:53 PM 44.1 °F - 42.1 °F 93% 30.29 in 10.0 mi Calm Calm - N/A   Overcast
10:53 PM 43.0 °F 41.3 °F 42.1 °F 97% 30.31 in 10.0 mi North 3.5 mph - N/A   Overcast
11:53 PM 43.0 °F - 41.0 °F 93% 30.30 in 10.0 mi Calm Calm - N/A   Overcast